Location: ??????
(35.8011°N, 43.7213°E)
Time: 19:36:26
(UTC+00:00)

Daily predictions for brighter satellites

Satellite Brightness Start Highest point End
(mag) Time Altitude Azimuth Time Altitude Azimuth Time Altitude Azimuth
Cosmos 2322 4.1 16:48:25 10° S 16:53:38 40° ESE 16:58:53 10° NE
Ariane Rocket 3.5 16:53:13 10° SE 16:57:59 43° ENE 17:02:47 10° N
ATLAS 3B R/B 2.6 16:52:45 10° SSW 16:59:12 70° ESE 17:05:49 10° NE
In-Cosmos 22 4.0 16:54:25 10° S 16:59:39 72° E 17:04:56 10° NNE
COSMOS 2428 3.5 16:55:00 10° SSE 16:59:55 30° ESE 17:04:52 10° NE
SL-24 DEB 4.3 16:56:55 10° S 17:01:40 90° E 17:06:28 10° N
Cosmos 1758 3.3 16:57:57 10° N 17:01:54 66° E 17:05:49 10° SSE
Cosmos 1727 Rocket 4.0 16:55:42 10° S 17:01:56 69° E 17:08:09 10° NNE
Cosmos 1741 Rocket 4.2 16:56:50 10° N 17:02:02 58° ENE 17:07:15 10° SSE
Cosmos 2263 Rocket 3.8 16:58:23 10° NW 17:03:25 33° WSW 17:08:24 10° SSW
Cosmos 1605 Rocket 4.1 16:58:02 10° N 17:04:26 87° W 17:10:43 10° S
USA 234 3.7 16:59:32 10° SSE 17:05:56 57° SW 17:12:23 10° NW
ERS-2 2.2 17:03:23 10° NNE 17:07:02 84° WNW 17:10:41 10° SSW
Cosmos 1975 Rocket 3.1 17:03:43 10° S 17:08:00 60° E 17:12:21 10° NNE
Helios 1A Rocket 3.5 17:05:55 10° S 17:09:53 58° WSW 17:13:53 10° NNW
ATLAS CENTAUR R/B 2.7 17:07:08 10° N 17:11:05 30° NE 17:14:55 11° ESE
ATLAS 2A CENTAUR R/B 4.3 16:48:18 10° WSW 17:15:10 42° S 17:21:55 11° ESE
Cosmos 1459 Rocket 4.5 17:12:54 10° N 17:18:34 40° ENE 17:23:48 12° SE
IGS 5A 4.2 17:17:01 12° SE 17:20:24 36° ENE 17:24:14 10° N
Yuri Rocket 4.3 17:15:56 10° WSW 17:20:42 40° S 17:26:38 12° ESE
Cosmos 1461 2.8 17:16:35 10° NNW 17:20:42 80° WSW 17:24:16 12° SSE
Cosmos 1470 4.2 17:17:28 10° NNW 17:21:08 37° W 17:24:44 10° SSW
SL-8 R/B 3.8 17:16:48 10° NW 17:21:37 74° NE 17:25:37 15° ESE
Cosmos 1110 Rocket 4.5 17:17:18 10° SSW 17:22:26 65° WNW 17:27:38 10° NNE
Cosmos 1953 2.7 17:18:43 10° N 17:22:38 45° E 17:25:55 14° SSE
Landsat 7 4.4 17:24:27 14° SE 17:28:12 42° ENE 17:32:40 10° N
SPOT 3 Rocket 4.1 17:25:00 14° SE 17:29:10 44° ENE 17:34:05 10° N
Cosmos 1908 3.5 17:25:46 10° N 17:29:30 48° E 17:32:15 17° SSE
Cosmos 1000 Rocket 4.5 17:24:40 10° S 17:30:44 67° E 17:36:48 10° NNE
Cosmos 2333 4.5 17:27:18 10° SSW 17:33:01 74° WNW 17:38:46 10° NNE
Aureole 1 Rocket 4.5 17:26:19 10° NNW 17:33:13 76° ENE 17:40:48 13° SSE
Cosmos 2219 Rocket 2.1 17:27:37 10° SSW 17:33:16 77° ESE 17:38:57 10° NNE
Cosmos 1802 Rocket 4.5 17:27:45 10° N 17:33:47 44° E 17:38:33 16° SE
Cosmos 1726 4.5 17:34:09 10° NW 17:37:01 22° W 17:39:53 10° SW
MOS 1 4.5 17:31:29 10° S 17:37:10 74° WSW 17:42:53 10° NNW
Lacrosse 5 4.3 17:38:12 10° W 17:40:52 14° WSW 17:43:32 10° SSW
OBJECT-B 3.5 17:41:06 10° SW 17:43:18 17° W 17:45:31 10° NW
Resurs 01 Rocket 1.6 17:40:42 17° SSE 17:44:05 76° ENE 17:48:30 10° N
BREEZE-M DEB (TANK) 4.2 17:47:18 10° NNW 17:49:18 16° NNE 17:50:29 12° ENE
Cosmos 2333 Rocket 2.7 17:45:12 10° SSW 17:50:53 64° WNW 17:56:35 10° NNE
Cosmos 1544 Rocket 3.6 17:49:19 10° N 17:53:44 67° E 17:56:16 24° SSE
Cosmos 1674 4.5 17:52:43 10° SW 17:56:00 31° W 17:59:20 10° NNW
Cosmos 1844 3.8 17:50:57 10° NNW 17:56:33 77° WSW 18:00:31 20° SSE
Cosmos 1455 Rocket 3.5 17:53:07 10° NNW 17:57:32 62° W 18:01:10 15° S
Cosmos 2237 Rocket 2.8 17:58:01 24° SSE 18:00:29 34° ESE 18:05:30 10° NE
Spot 2 Rocket 4.1 17:58:59 25° ESE 18:01:21 40° ENE 18:06:05 10° N
Cosmos 2123 Rocket 4.0 17:55:29 12° S 18:01:24 73° E 18:07:43 10° N
ASTRO E2 3.5 17:59:28 10° WSW 18:03:02 32° SSW 18:03:43 30° S
Cosmos 405 3.2 17:59:58 10° N 18:03:20 49° E 18:04:04 40° ESE
Cosmos 1346 Rocket 3.8 18:03:25 27° E 18:03:42 27° E 18:07:07 10° NNE
Cosmos 1025 Rocket 3.7 18:00:38 10° SSW 18:04:54 54° W 18:09:11 10° N
X-37B 2.1 18:02:13 10° W 18:05:14 39° NNW 18:08:14 10° NE
CZ-2C R/B 3.9 18:06:36 10° N 18:11:22 75° WNW 18:15:51 11° SSW
Cosmos 2228 4.5 18:09:26 10° NNE 18:12:53 22° ENE 18:13:22 22° E
JB-3 4.3 18:11:03 10° NNE 18:15:07 80° ESE 18:17:03 31° S
Cosmos 1340 3.6 18:12:43 12° SSW 18:16:02 46° W 18:19:41 10° N
Meteor 2-5 Rocket 3.6 18:11:59 19° S 18:16:06 81° E 18:21:44 10° N
DELTA 2 R/B (1) 3.9 18:11:18 10° SW 18:16:27 40° SSE 18:19:28 22° E
SL-4 R/B 4.3 18:13:14 10° W 18:16:56 27° NNW 18:20:26 10° NNE
ARIANE 5 R/B 2.9 18:18:29 38° ESE 18:19:46 51° ENE 18:24:08 10° N
Cosmos 2061 Rocket 4.0 18:16:13 10° N 18:22:39 86° E 18:26:17 28° S
Cosmos 1536 Rocket 3.8 18:20:22 20° SSW 18:23:19 68° W 18:27:45 10° N
Meteor 2-10 Rocket 4.1 18:19:43 10° N 18:24:21 36° ENE 18:25:25 32° ESE
MetOp-B 4.4 18:22:04 25° S 18:25:14 65° WSW 18:30:33 10° NNW
Cosmos 1626 4.4 18:23:14 10° SW 18:26:14 23° WNW 18:29:15 10° NNW
Cosmos 1300 2.5 18:22:56 10° N 18:26:45 80° E 18:27:22 61° SSE
OE (NEXTSAT) 4.2 18:26:14 10° WSW 18:29:42 84° NNW 18:31:05 34° NE
Cosmos 1844 Rocket 4.2 18:25:57 10° NW 18:30:49 30° WSW 18:34:41 14° SSW
SL-08 R/B 4.4 18:25:28 10° N 18:31:48 88° W 18:35:00 31° S
Meteor 1-24 Rocket 3.5 18:29:05 27° S 18:32:08 90° NNE 18:37:41 10° N
Cosmos 2016 Rocket 4.1 18:27:16 10° N 18:33:22 72° W 18:36:57 26° S
CARTOSAT-1 3.4 18:32:31 52° SSE 18:33:31 82° ENE 18:37:51 10° N
DNEPR-1 R/B 4.0 18:31:48 10° NW 18:36:00 54° WSW 18:37:15 40° SSW
SPOT 1/Viking Rocket 4.0 18:35:45 29° SSW 18:38:13 57° W 18:43:17 10° NNW
Terra 2.4 18:37:38 38° E 18:38:24 41° ENE 18:42:52 10° N
Cosmos 2278 Rocket 2.7 18:35:03 10° N 18:40:29 47° ENE 18:42:04 37° ESE
COSMOS 2428 4.4 18:38:55 10° SW 18:44:03 33° WNW 18:49:13 10° N
ATLAS CENTAUR R/B 3.2 18:46:06 10° WNW 18:49:51 26° WSW 18:51:04 23° SW
Cosmos 1725 Rocket 4.3 18:44:40 10° NNW 18:50:44 60° W 18:53:55 29° SSW
Cosmos 968 Rocket 3.6 18:47:33 10° NNW 18:52:39 68° WSW 18:53:55 49° SSW
Cosmos 192 4.2 18:54:09 64° SSE 18:54:47 74° ESE 18:59:42 10° NNE
NOSS 0 Rocket 4.4 18:48:46 10° SW 18:54:51 59° WNW 19:01:01 10° NNE
NOSS 3-1 (C) 3.7 19:00:50 39° E 19:00:50 39° E 19:05:15 10° NE
SPOT 5 3.0 19:04:11 56° SSW 19:05:05 69° WSW 19:09:55 10° NNW
Cosmos 1980 4.5 19:07:54 16° SW 19:12:20 50° WNW 19:17:52 10° N
Cosmos 389 Rocket 3.6 19:09:01 10° NNW 19:11:30 43° NNW 19:11:30 43° NNW
Cosmos 1486 Rocket 4.3 19:11:18 10° NNW 19:16:22 55° WSW 19:17:04 50° SW
Cosmos 1726 Rocket 3.7 19:14:20 10° N 19:18:20 69° NNE 19:18:20 69° NNE
ATLAS CENTAUR R/B 2.7 19:21:46 49° WSW 19:22:52 72° NW 19:31:38 10° NE
ERS-1 Rocket 3.7 19:23:39 40° WSW 19:24:24 43° W 19:29:12 10° NNW
Meteor 1-21 Rocket 4.1 19:24:17 69° ESE 19:24:33 70° E 19:30:16 10° NNE
SJ 16-02 3.5 19:22:07 10° NNE 19:24:25 16° ENE 19:24:25 16° ENE
Cosmos 1867 4.2 19:20:01 10° NW 19:25:09 43° WSW 19:25:36 42° SW
USA 215 3.7 19:19:02 10° ENE 19:24:09 41° ESE 19:24:09 41° ESE
Okean 1-7 Rocket 4.3 19:27:12 46° NE 19:27:12 46° NE 19:30:31 10° NNE
Cosmos 2058 Rocket 3.7 19:25:24 10° N 19:28:53 49° NNE 19:28:53 49° NNE
Geosat 3.9 19:34:06 75° WSW 19:34:06 75° WSW 19:39:04 10° NNW
Cosmos 1606 Rocket 4.3 19:31:43 10° NNW 19:35:40 46° WNW 19:35:40 46° WNW
Cosmos 1354 Rocket 3.9 19:30:43 10° NNW 19:36:03 79° WSW 19:36:04 79° WSW
Cosmos 1892 Rocket 4.3 19:38:13 49° WNW 19:38:13 49° WNW 19:42:21 10° N
Cosmos 2034 Rocket 4.2 19:35:04 10° N 19:41:03 51° E 19:41:19 51° E
X-37B 3.6 19:40:20 10° NW 19:42:26 16° N 19:42:48 16° N
Cosmos 2237 Rocket 3.9 19:39:44 10° WSW 19:44:30 29° WNW 19:49:21 10° N
SL-16 R/B 2.1 19:44:50 84° SW 19:45:00 87° WNW 19:50:43 10° NNE
Cosmos 1455 3.8 19:45:27 10° NNW 19:47:45 32° NW 19:47:45 32° NW
Cosmos 1607 4.1 19:48:06 10° NW 19:54:19 58° WSW 19:54:32 57° WSW
Cosmos 2369 Rocket 4.0 19:52:52 10° N 19:56:57 20° NE 19:58:12 18° ENE
DELTA 2 R/B (1) 4.5 19:57:08 10° WSW 20:07:07 16° ENE 20:08:15 10° ENE
ALOS 2 4.2 20:06:35 29° NE 20:06:35 29° NE 20:09:23 10° N
Tsikada Rocket 3.8 20:09:54 79° E 20:09:54 79° E 20:15:59 10° N
Terra 3.9 20:16:31 17° W 20:16:31 17° W 20:19:22 10° NW
Cosmos 2278 Rocket 3.9 20:20:04 10° NW 20:23:54 21° W 20:23:54 21° W
Cosmos 2297 3.9 20:26:08 10° NNW 20:31:04 69° NNW 20:31:04 69° NNW
Cosmos 1943 Rocket 2.4 20:26:22 10° NNW 20:31:11 65° NNE 20:31:11 65° NNE
Exosat Rocket 4.3 20:36:34 54° ENE 20:36:34 54° ENE 20:41:07 10° NNE
USA 229 DEB 4.1 20:42:46 42° W 20:44:19 51° NW 20:50:52 10° NNE
USA 229 4.1 20:42:55 43° W 20:44:25 52° NW 20:50:58 10° NNE
Cosmos 2279 Rocket 4.5 20:41:00 10° N 20:46:54 48° ENE 20:46:54 48° ENE
Cosmos 1943 3.5 20:55:11 60° NNE 20:55:11 60° NNE 20:59:48 10° NNE
Cosmos 1634 Rocket 3.9 20:49:22 10° N 20:55:28 83° NNW 20:55:28 83° NNW
GEOS 3 Rocket 4.1 20:58:59 58° NE 20:58:59 58° NE 21:04:00 10° NNW
SJ 16-02 3.3 20:59:27 10° NNW 21:01:23 23° NW 21:01:23 23° NW
Thor Agena Rocket 4.1 20:58:25 10° NNE 21:02:27 55° NNE 21:02:27 55° NNE
NOSS 3-1 (A) 4.4 21:03:22 32° WNW 21:04:26 35° NW 21:09:55 10° NNE
Cosmos 841 Rocket 4.4 21:08:05 43° NE 21:08:05 43° NE 21:11:39 10° NNE
Cosmos 1603 4.0 21:08:48 64° NNW 21:08:48 64° NNW 21:13:47 10° NNE
USA 215 4.0 21:01:59 10° NNE 21:08:11 48° NW 21:11:27 27° W
Nadezhda 4 Rocket 4.4 21:16:42 51° E 21:16:42 51° E 21:22:15 10° NNE
Cosmos 1937 Rocket 4.1 21:21:52 10° N 21:26:19 56° NNE 21:26:19 56° NNE
ATLAS 5 CENTAUR R/B 3.3 21:31:36 27° NNE 21:31:36 27° NNE 21:33:37 10° NNE
Cosmos 1932 4.4 21:25:24 10° NNW 21:31:20 79° NNE 21:31:20 79° NNE
Cosmos 1898 Rocket 4.2 21:29:21 10° NNW 21:33:08 49° NNW 21:33:08 49° NNW
USA 267 4.1 21:32:48 13° ESE 21:38:19 46° NE 21:44:29 10° NNW
Resurs 1-4 Rocket 3.9 21:35:00 10° NE 21:38:37 21° E 21:38:37 21° E
Cosmos 2369 Rocket 2.9 21:35:45 10° NNW 21:39:58 45° WNW 21:39:58 45° WNW
Cosmos 1814 Rocket 4.4 21:46:39 58° N 21:46:39 58° N 21:50:48 10° NNE
DELTA 2 R/B (1) 4.0 21:47:51 42° NW 21:49:28 58° N 21:54:57 10° E
Aureole 3 Rocket 4.2 21:55:33 10° N 22:00:22 53° E 22:00:45 52° E
Cosmos 1092 Rocket 3.9 22:02:32 73° ESE 22:02:39 73° E 22:08:47 10° N
CZ-2D R/B 2.8 22:09:19 10° NNE 22:14:07 44° E 22:14:07 44° E
BREEZE-M R/B 3.6 22:15:42 42° NNE 22:15:42 42° NNE 22:18:38 10° NE
CZ-4 R/B 4.3 22:11:59 10° N 22:15:48 56° NNW 22:15:48 56° NNW
Cosmos 2221 4.1 22:14:04 10° NNW 22:16:20 28° NW 22:16:20 28° NW
Cosmos 2098 Rocket 4.4 22:20:15 34° NW 22:20:15 34° NW 22:23:07 10° N
NPP 4.4 22:14:06 10° NNE 22:19:09 40° E 22:19:19 40° ESE
Cosmos 2195 Rocket 4.3 22:21:24 78° SW 22:21:47 83° W 22:28:05 10° N
MOZ.5/SAFIR/RUBIN 5/SL-8 4.1 22:22:31 64° NNE 22:22:31 64° NNE 22:26:46 10° N
SL-16 R/B 3.3 22:21:00 30° ESE 22:23:31 45° ENE 22:29:21 10° N
Lacrosse 4 Rocket 3.1 22:22:15 10° NNW 22:24:14 28° NNW 22:24:14 28° NNW
Helios 1A 4.1 22:32:07 40° NNW 22:32:07 40° NNW 22:34:52 10° NNW
Meteor 2-15 4.3 22:27:45 10° NNW 22:33:51 72° W 22:34:08 71° WSW
Meteor 2-15 Rocket 4.3 22:28:33 10° N 22:34:43 89° E 22:35:25 72° S
Cosmos 1782 4.5 22:33:22 10° NNE 22:36:52 28° ENE 22:36:55 28° E
CZ-4C R/B 2.1 22:37:57 62° E 22:37:57 62° E 22:42:51 10° NE
ARGOS Delta rocket 4.0 22:32:29 10° N 22:37:58 85° WNW 22:38:02 85° W
UNK 3.8 22:54:35 70° E 22:54:49 72° ENE 22:59:26 10° N
Meteor 2-21 4.5 22:53:31 53° SSE 22:54:58 75° E 23:01:10 10° N
AQUA 3.8 22:51:04 10° NNE 22:55:51 73° ESE 22:55:59 73° ESE
Cosmos 2026 Rocket 4.4 23:01:09 43° WSW 23:02:01 46° W 23:08:06 10° N
Cosmos 44 3.7 23:01:38 54° SE 23:02:11 57° ESE 23:07:30 10° NE
Gbstr 26 Del rocket 4.0 23:03:29 36° ESE 23:03:29 36° ESE 23:07:41 10° ENE
Cosmos 1553 Rocket 3.9 22:58:11 10° N 23:04:26 82° E 23:06:28 45° SSE
COSMOS 2406 3.8 23:06:57 38° SSE 23:08:27 48° ESE 23:13:51 10° NNE
Cosmos 1151 Rocket 3.2 23:05:00 10° N 23:09:14 63° E 23:09:35 60° ESE
Meteor 2-3 Rocket 3.9 23:09:48 49° W 23:10:24 51° WNW 23:15:50 10° N
OAO 3 Rocket 3.4 23:11:38 53° SE 23:11:38 53° SE 23:15:36 10° E
S3M 4.3 23:07:15 10° N 23:13:25 64° E 23:16:55 27° SSE
Cosmos 773 Rocket 4.4 23:12:41 44° SSE 23:13:58 57° ESE 23:19:08 10° NNE
CENTAUR R/B 4.4 23:08:33 10° NNW 23:16:22 42° NE 23:24:42 10° ESE
Cosmos 783 Rocket 4.5 23:15:20 57° S 23:16:22 76° ESE 23:21:35 10° NNE
Resurs 1-4 Rocket 2.7 23:13:56 10° N 23:18:54 41° WNW 23:19:41 39° W
SL-4 R/B 4.1 23:16:36 10° NNW 23:19:35 23° NNE 23:22:25 10° E
ADEOS II 2.0 23:15:30 10° NNE 23:20:47 89° E 23:22:04 53° SSW
Cosmos 1933 4.5 23:17:17 10° NNW 23:20:06 33° WNW 23:20:06 33° WNW
USA 267 3.4 23:20:03 43° SSW 23:21:14 47° SW 23:27:31 10° NW
IRS-1D 3.5 23:17:51 10° NNE 23:22:54 71° ESE 23:24:15 47° S
Cosmos 1417 Rocket 4.4 23:19:19 10° N 23:25:41 81° W 23:28:26 37° S
Alouette 2 Rocket 3.6 23:22:14 10° N 23:26:10 85° E 23:27:44 43° SSE
SL-19 R/B 4.3 23:20:56 10° N 23:26:16 63° WNW 23:27:42 47° SW
IDEFIX/ARIANE 42P 3.1 23:21:15 10° NNE 23:26:21 51° E 23:28:32 31° SSE
Cosmos 1812 3.3 23:22:50 10° N 23:26:35 51° E 23:27:26 42° SE
ASTEX 1 4.2 23:24:00 23° SE 23:26:50 49° E 23:31:34 10° N
Tianhe-1 2.5 23:29:49 33° NNW 23:29:56 34° N 23:32:50 10° ENE
Cosmos 1862 3.2 23:31:14 73° S 23:31:36 87° E 23:35:40 10° N
Cosmos 1408 Rocket 3.5 23:31:55 57° S 23:32:49 85° E 23:37:18 10° N
Lacrosse 5 rocket 2.2 23:29:36 10° NNW 23:33:05 44° NE 23:36:40 10° ESE
Cosmos 1766 Rocket 4.1 23:34:47 41° W 23:34:58 41° W 23:39:13 10° N
DELTA 2 R/B (1) 3.5 23:30:37 10° WNW 23:36:11 89° S 23:41:44 10° ESE
ATLAS 2A CENTAUR R/B 4.4 23:39:03 16° SE 23:39:03 16° SE 23:41:18 10° ESE
Cosmos 1515 Rocket 4.2 23:33:40 10° N 23:38:02 55° E 23:40:34 24° SSE
Cosmos 2266 Rocket 3.8 23:36:36 38° SSW 23:39:06 79° W 23:45:10 10° N
Meteor 2-16 Rocket 4.4 23:37:07 38° SSW 23:39:35 76° W 23:45:43 10° N
Helios 1B rocket 3.7 23:36:18 10° NNW 23:39:43 26° WNW 23:39:46 26° WNW
Cosmos 1271 Rocket 2.6 23:36:30 10° NNW 23:40:07 62° W 23:40:07 62° W
Cosmos 1833 Rocket 2.6 23:38:15 42° SSW 23:40:15 84° WNW 23:45:56 10° NNE
USA 281 4.3 23:41:57 10° SE 23:48:07 45° ENE 23:54:18 10° N
Meteor 1-28 Rocket 3.1 23:50:58 49° S 23:51:54 79° WSW 23:55:43 10° NNW
CZ-2D R/B 3.7 23:50:18 10° NNW 23:53:59 20° WNW 23:55:26 18° W
Cosmos 1125 Rocket 4.4 23:49:58 10° NW 23:54:30 30° W 23:54:49 30° WSW
GPS 2-04 Rocket1 4.2 23:57:07 22° SSE 23:57:07 22° SSE 23:58:54 10° SE
